Torna al catalogo

STARLINK-36587

AttivoComunicazioniSSO
NORAD 67532·PAYLOAD·🇺🇸 United States

Lanciato Jan 22, 2026 da Vandenberg Space Force Base

Loading…

Prossimi Passaggi (prossime 24 ore)

TLE

AggiornatoSource: CelesTrak SupGP

Epoca: Sep 14, 2026, 21:23 UTC

1 67532C 26014A   26257.89145833 -.00023123  00000+0 -71801-3 0  2578
2 67532  97.2848 143.3726 0001813  89.4188 180.0619 15.33440834    11

Traccia STARLINK-36587 in tempo reale con AllMySat

Download on the App Store